Weather History for Waco, TX

Change the Weather History Date:

Saturday, November 3, 2012

  Actual Average Record
Temperature  
Mean Temperature 71 °F 62 °F  
Max Temperature 84 °F 74 °F 88 °F (1948)
Min Temperature 57 °F 51 °F 25 °F (1951)
Degree Days  
Heating Degree Days 0 5  
Month to date heating degree days 0 15  
Since 1 July heating degree days 110 82  
Cooling Degree Days 6 2  
Month to date cooling degree days 15 8  
Year to date cooling degree days 3186 2764  
Growing Degree Days 22 (Base 50)    
Moisture  
Dew Point 61 °F    
Average Humidity 70    
Maximum Humidity 100    
Minimum Humidity 40    
Precipitation  
Precipitation T in 0.11 in 2.99 in (2000)
Month to date precipitation T 0.33  
Year to date precipitation 31.53 29.45  
Snow  
Snow 0.00 in 0.00 in 0.00 in ()
Month to date snowfall 0.0 0.0  
Since 1 July snowfall 0.0 0.0  
Since 1 September snowfall 0.0 0.0  
Snow Depth 0.00 in    
Sea Level Pressure  
Sea Level Pressure 30.03 in    
Wind  
Wind Speed 7 mph (South)    
Max Wind Speed 17 mph    
Max Gust Speed 21 mph    
Visibility 9 miles    
Events Thunderstorm    
T = Trace of Precipitation, MM = Missing Value Source: NWS Daily Summary

Daily Weather History Graph

Daily Weather History Graph

Search for Another Location

Airport:

Trip Planner

Search our weather history database for the weather conditions in past years. The results will help you decide how hot, cold, wet, or windy it might be!

Date:

Astronomy

Nov. 03, 2012 Rise Set
Actual Time 7:47 AM CDT 6:37 PM CDT
Civil Twilight 7:21 AM CDT 7:02 PM CDT
Nautical Twilight 6:52 AM CDT 7:31 PM CDT
Astronomical Twilight 6:24 AM CDT 8:00 PM CDT
Moon 10:25 PM CDT (11/3) 11:45 AM CDT (11/3)
Length of Visible Light 11h 40m
Length of Day
10h 50m
Waning Gibbous, 80% of the Moon is Illuminated
Nov 3
Waning Gibbous
Nov 6
Last Quarter
Nov 13
New
Nov 20
First Quarter
Nov 28
Full

Hourly Weather History & Observations

Time (CDT) Temp. Heat Index Dew Point Humidity Pressure Visibility Wind Dir Wind Speed Gust Speed Precip Events Conditions
12:51 AM 68.0 °F - 60.1 °F 76% 29.97 in 10.0 mi South 11.5 mph - N/A   Clear
1:51 AM 68.0 °F - 61.0 °F 78% 29.97 in 10.0 mi South 10.4 mph - N/A   Clear
2:51 AM 66.9 °F - 62.1 °F 84% 29.97 in 10.0 mi South 10.4 mph - N/A   Clear
3:51 AM 64.9 °F - 62.1 °F 90% 29.97 in 10.0 mi South 5.8 mph - N/A   Clear
4:51 AM 64.9 °F - 63.0 °F 93% 29.98 in 10.0 mi South 5.8 mph - N/A   Clear
5:51 AM 63.0 °F - 62.1 °F 97% 30.00 in 10.0 mi SSE 4.6 mph - N/A   Partly Cloudy
6:51 AM 62.1 °F - 61.0 °F 96% 30.01 in 10.0 mi SE 5.8 mph - N/A   Mostly Cloudy
7:04 AM 62.6 °F - 60.8 °F 94% 30.03 in 10.0 mi SSE 5.8 mph - N/A   Scattered Clouds
7:13 AM 62.6 °F - 60.8 °F 94% 30.04 in 10.0 mi South 5.8 mph - N/A   Mostly Cloudy
7:26 AM 64.4 °F - 62.6 °F 94% 30.04 in 8.0 mi South 5.8 mph - N/A   Overcast
7:41 AM 64.4 °F - 64.4 °F 100% 30.05 in 3.0 mi South 6.9 mph - N/A   Overcast
7:51 AM 64.9 °F - 64.0 °F 97% 30.04 in 2.5 mi South 9.2 mph - N/A   Overcast
8:20 AM 64.4 °F - 64.4 °F 100% 30.08 in 1.5 mi SSW 5.8 mph - N/A   Overcast
8:51 AM 66.0 °F - 64.9 °F 96% 30.07 in 1.5 mi South 4.6 mph - N/A   Overcast
9:51 AM 68.0 °F - 64.9 °F 90% 30.08 in 3.0 mi South 3.5 mph - N/A   Overcast
10:42 AM 69.8 °F - 64.4 °F 83% 30.10 in 10.0 mi South 10.4 mph - N/A   Overcast
10:51 AM 70.0 °F - 64.9 °F 84% 30.09 in 10.0 mi South 9.2 mph - N/A   Overcast
11:16 AM 73.4 °F - 64.4 °F 73% 30.10 in 10.0 mi SSW 11.5 mph - N/A   Mostly Cloudy
11:37 AM 75.2 °F - 64.4 °F 69% 30.09 in 10.0 mi South 13.8 mph - N/A   Scattered Clouds
11:51 AM 77.0 °F - 64.9 °F 66% 30.07 in 10.0 mi South 13.8 mph - N/A   Clear
12:51 PM 82.4 °F 83.9 °F 64.4 °F 54% 30.06 in 10.0 mi South 10.4 mph 16.1 mph N/A   Clear
1:51 PM 82.0 °F 83.0 °F 62.1 °F 51% 30.01 in 10.0 mi SW 5.8 mph - N/A   Scattered Clouds
2:51 PM 84.0 °F 84.5 °F 62.1 °F 47% 29.98 in 10.0 mi SE 5.8 mph - N/A   Clear
2:53 PM 82.4 °F 83.4 °F 62.6 °F 51% 30.00 in 10.0 mi ESE 5.8 mph - N/A   Scattered Clouds
3:51 PM 82.9 °F 82.1 °F 55.9 °F 39% 29.98 in 10.0 mi West 4.6 mph - 0.00 in   Mostly Cloudy
4:48 PM 77.0 °F - 60.8 °F 57% 30.00 in 10.0 mi SSE 5.8 mph - 0.00 in Thunderstorm Scattered Clouds
4:51 PM 77.0 °F - 60.1 °F 56% 29.98 in 10.0 mi SSE 3.5 mph - 0.00 in Thunderstorm Mostly Cloudy
5:22 PM 71.6 °F - 57.2 °F 60% 29.99 in 10.0 mi SSW 8.1 mph - N/A   Partly Cloudy
5:51 PM 71.1 °F - 57.0 °F 61% 29.99 in 10.0 mi South 8.1 mph - N/A   Clear
6:51 PM 71.1 °F - 61.0 °F 70% 30.01 in 10.0 mi SE 6.9 mph - N/A   Clear
7:51 PM 71.1 °F - 60.1 °F 68% 30.03 in 10.0 mi South 15.0 mph - N/A   Clear
8:51 PM 64.9 °F - 55.9 °F 73% 30.04 in 10.0 mi SSW 8.1 mph - N/A   Clear
9:51 PM 62.1 °F - 55.0 °F 78% 30.04 in 10.0 mi Calm Calm - N/A   Clear
10:51 PM 61.0 °F - 54.0 °F 78% 30.07 in 10.0 mi NNW 8.1 mph - N/A   Partly Cloudy
11:51 PM 64.0 °F - 57.0 °F 78% 30.07 in 10.0 mi ESE 5.8 mph - N/A   Partly Cloudy